Terminal Aerodrome Forecast
Issued by NWS

Home | Current Version | Previous Version | Text Only | Print | Product List | Glossary On
Versions: 1 2 3 4 5 6 7 8 9 10 11 12 13 14 15 16 17 18 19 20 21 22 23 24 25 26 27 28 29 30 31 32 33 34 35 36 37 38 39 40 41 42 43 44 45 46 47 48 49 50
000
FTUS43 KMKX 260520
TAFUES
TAF
KUES 260520Z 2606/2706 VRB03KT P6SM SCT030 BKN100
     FM261000 00000KT P6SM SCT025 BKN060
     FM261700 18006KT 6SM -SN OVC030
     FM261800 18007KT 2SM -SN OVC025
     FM262300 18006KT 3SM -SN OVC015
     FM270000 20006KT 3SM -FZDZSN OVC010
     FM270300 20004KT 2SM BR OVC007=

USA.gov is the U.S. government's official web portal to all federal, state and local government web resources and services.